Probability
0 0 0 0 0 0 0 0 0 0 0 0 0 0 0 0 0 0 0 0 0 0 0 0 0 0 0 0 0 0 0 0 0 0 0 0 0 0 0 0 0 0 0 0
0 0 0 0 0 0 0 0 0 0 0 0 0 0 0 0 0 0 0 0 0 0 0 0 0 0 0 0 0 0 0 0 0 0 0 0 0 0 0 0 0 0 0 0
0 0 0 0 0 0 0 0 0 0 0 0 0 0 0 0 0 0 0 0 0 0 0 0 0 0 0 0 0 0 0 0 0 0 0 0 0 0 0 0 0 0 0 0
0 0 0 0 0 0 0 0 0 0 0 0 0 0 0 0 0 0 0 0 0 0 0 0 0 0 0 0 0 0 0 0 0 0 0 0 0 0 0 0 0 0 0 0
0 0 0 0 0 0 0 0 0 0 0 0 0 0 0 0 0 0 0 0 0 0 0 0 0 0 0 0 0 0 0 0 0 0 0 0 0 0 0 0 0 0 0 0
0 0 0 0 0 0 0 0 0 0 0 0 0 0 0 0 0 0 0 0 0 0 0 0 0 0 0 0 0 0 0 0 0 0 0 0 0 0 0 0 0 0 0 0
0 0 0 0 0 0 0 0 0 0 0 0 0 0 0 0 0 0 0 0 0 0 0 0 0 0 0 0 0 0 0 0 0 0 0 0 0 0 0 0 0 0 0 0
0 0 0 0 0 0 0 0 0 0 0 0 0 0 0 0 0 0 0 0 0 0 0 0 0 0 0 0 0 0 0 0 0 0 0 0 0 0 0 0 0 0 0 0
0 0 0 0 0 0 0 0 0 0 0 0 0 0 0 0 0 0 0 0 0 0 0 0 0 0 0 0 0 0 0 0 0 0 0 0 0 0 0 0 0 0 0 0
0 0 0 0 0 0 0 0 0 0 0 0 0 0 0 0 0 0 0 0 0 0 0 0 0 0 0 0 0 0 0 0 0 0 0 0 0 0 0 0 0 0 0 0
0 0 0 0 0 0 0 0 0 0 0 0 0 0 0 0 0 0 0 0 0 0 0 0 0 0 0 0 0 0 0 0 0 0 0 0 0 0 0 0 0 0 0 0
0 0 0 0 0 0 0 0 0 0 0 0 0 0 0 0 0 0 0 0 0 0 0 0 0 0 0 0 0 0 0 0 0 0 0 0 0 0 0 0 0 0 0 0
0 0 0 0 0 0 0 0 0 0 0 0 0 0 0 0 0 0 0 0 0 0 0 0 0 0 0 0 0 0 0 0 0 0 0 0 0 0 0 0 0 0 0 0
0 0 0 0 0 0 0 0 0 0 0 0 0 0 0 0 0 0 0 0 0 0 0 0 0 0 0 0 0 0 0 0 0 0 0 0 0 0 0 0 0 0 0 0
0 0 0 0 0 0 0 0 0 0 0 0 0 0 0 0 0 0 0 0 0 0 0 0 0 0 0 0 0 0 0 0 0 0 0 0 0 0 0 0 0 0 0 0
0 0 0 0 0 0 0 0 0 0 0 0 0 0 0 0 0 0 0 0 0 0 0 0 0 0 0 0 0 0 0 0 0 0 0 0 0 0 0 0 0 0 0 0
0 0 0 0 0 0 0 0 0 0 0 0 0 0 0 0 0 0 0 0 0 0 0 0 0 0 0 0 0 0 0 0 0 0 0 0 0 0 0 0 0 0 0 0
0 0 0 0 0 0 0 0 0 0 0 0 0 0 0 0 0 0 0 0 0 0 0 0 0 0 0 0 0 0 0 0 0 0 0 0 0 0 0 0 0 0 0 0
0 0 0 0 0 0 0 0 0 0 0 0 0 0 0 0 0 0 0 0 0 0 0 0 0 0 0 0 0 0 0 0 0 0 0 0 0 0 0 0 0 0 0 0
0 0 0 0 0 0 0 0 0 0 0 0 0 0 0 0 0 0 0 0 0 0 0 0 0 0 0 0 0 0 0 0 0 0 0 0 0 0 0 0 0 0 0 0
0 0 0 0 0 0 0 0 0 0 0 0 0 0 0 0 0 0 0 0 0 0 0 0 0 0 0 0 0 0 0 0 0 0 0 0 0 0 0 0 0 0 0 0
0 0 0 0 0 0 0 0 0 0 0 0 0 0 0 0 0 0 0 0 0 0 0 0 0 0 0 0 0 0 0 0 0 0 0 0 0 0 0 0 0 0 0 0
0 0 0 0 0 0 0 0 0 0 0 0 0 0 0 0 0 0 0 0 0 0 0 0 0 0 0 0 0 0 0 0 0 0 0 0 0 0 0 0 0 0 0 0
0 0 0 0 0 0 0 0 0 0 0 0 0 0 0 0 0 0 0 0 0 0 0 0 0 0 0 0 0 0 0 0 0 0 0 0 0 0 0 0 0 0 0 0
0 0 0 0 0 0 0 0 0 0 0 0 0 0 0 0 0 0 0 0 0 0 0 0 0 0 0 0 0 0 0 0 0 0 0 0 0 0 0 0 0 0 0 0
0 0 0 0 0 0 0 0 0 0 0 0 0 0 0 0 0 0 0 0 0 0 0 0 0 0 0 0 0 0 0 0 0 0 0 0 0 0 0 0 0 0 0 0
Wind_Speed
7 7 14 16 13 5 6 7 7 8 5 7 8 8 8 6 7 9 9 10 11 14 12 10 11 11 11 12 13 14 13 12 9 7 6 6 6 4 4 4 6 7 6 6
7 15 13 9 9 7 5 6 6 3 2 5 7 9 7 6 8 10 11 12 13 11 8 9 10 11 13 14 14 14 14 13 11 9 7 4 4 3 4 4 5 6 6 6
13 7 11 10 9 10 9 8 7 5 2 1 3 6 7 7 6 7 7 9 9 12 13 11 11 11 12 13 15 13 14 13 12 9 5 4 3 3 4 4 4 5 6 6
8 5 12 12 13 12 12 8 7 7 7 5 6 6 8 8 8 9 11 10 11 10 10 10 11 11 11 12 11 12 13 12 12 11 9 9 7 7 6 4 4 4 5 5
10 9 14 18 17 12 7 6 7 7 6 4 3 4 8 4 8 12 14 13 12 10 10 10 10 10 9 8 8 9 10 11 12 12 12 10 8 6 4 4 5 4 3 3
6 6 10 11 10 10 4 5 4 3 3 7 9 7 9 7 10 10 11 12 11 9 7 6 5 5 4 4 5 6 9 10 11 12 12 11 10 8 6 5 5 3 2 2
6 6 5 6 10 7 7 8 4 3 5 9 4 6 11 8 8 9 10 10 9 8 8 7 7 6 6 6 5 5 7 8 9 11 11 11 10 9 8 6 5 4 3 2
12 10 11 9 12 12 13 13 10 9 8 4 3 9 10 6 4 4 5 5 7 7 7 7 7 6 5 5 5 6 7 7 8 9 9 8 9 6 5 5 5 4 3 3
13 9 5 6 5 13 11 9 6 7 4 4 6 7 10 4 4 3 4 6 8 8 7 7 6 5 5 5 5 6 6 6 7 8 8 7 7 7 7 6 6 5 4 4
9 7 5 4 4 1 9 10 6 6 8 6 5 6 7 7 10 9 9 10 8 7 6 6 5 5 4 3 3 4 6 6 6 7 7 7 7 8 8 8 8 7 6 5
6 9 4 5 9 11 7 8 7 6 6 8 5 9 10 11 12 13 13 10 9 9 8 7 5 5 4 4 4 5 6 7 7 8 8 9 8 9 9 8 8 7 6 6
5 8 6 4 2 3 5 8 9 9 6 5 5 8 4 5 5 7 9 8 8 8 7 7 6 5 5 5 5 5 6 7 7 8 9 10 9 9 9 8 7 7 7 6
9 10 9 2 2 4 5 6 7 6 6 6 7 9 3 2 3 4 6 8 9 9 8 6 6 6 6 5 5 6 6 7 7 8 10 10 9 9 9 8 7 7 7 6
9 6 9 16 11 9 7 6 7 8 7 7 9 7 5 5 6 5 6 8 8 9 9 8 7 6 6 6 6 6 6 7 8 9 10 9 8 8 8 7 7 7 6 6
9 6 5 5 7 13 9 11 11 10 10 11 11 10 10 9 9 8 7 8 9 10 10 11 10 8 7 7 6 6 7 7 8 9 10 9 8 8 8 7 7 6 6 6
9 9 6 3 4 9 7 11 13 13 12 11 8 11 9 4 4 6 9 12 13 13 13 12 11 11 11 10 9 9 8 7 8 9 9 8 8 8 7 7 6 6 6 5
9 9 9 5 3 6 7 14 17 12 11 12 16 14 5 5 9 12 14 15 16 15 14 15 15 14 13 12 11 11 9 8 8 9 9 8 8 8 7 7 6 6 5 5
11 9 6 6 6 8 13 7 11 16 15 14 10 7 10 12 11 9 12 16 15 14 15 15 14 13 11 10 9 9 9 9 9 9 8 8 8 8 7 6 6 5 4 4
8 11 7 6 6 9 10 6 11 11 14 13 14 9 7 3 1 4 8 12 14 15 14 13 12 12 12 12 12 12 10 9 9 9 9 8 8 9 8 7 6 4 4 4
6 8 8 7 8 14 12 7 7 6 13 11 12 12 9 8 6 9 9 12 11 10 9 10 11 11 13 12 13 13 12 11 10 9 8 7 7 8 7 7 5 3 3 3
6 5 7 7 7 13 7 4 11 12 15 5 10 11 12 14 13 6 6 8 8 8 9 11 13 12 13 14 14 13 12 11 9 8 8 7 6 6 6 5 4 4 4 3
12 9 9 8 8 13 5 9 13 11 2 3 5 7 10 10 6 2 4 6 8 9 10 12 12 11 11 13 14 13 12 9 9 9 8 7 6 5 5 6 5 4 4 3
10 11 10 12 11 3 7 8 5 3 4 3 3 3 5 5 4 3 3 5 6 8 10 9 11 11 9 9 11 13 11 11 11 9 8 7 6 5 5 5 5 4 3 2
4 2 6 5 5 3 2 1 1 2 2 2 2 2 4 5 4 5 5 5 6 7 8 9 12 12 10 8 7 9 12 11 11 10 8 7 7 6 4 3 3 3 3 2
6 6 5 5 2 1 2 3 2 1 2 2 1 1 2 4 4 5 6 6 7 6 6 8 11 12 11 9 9 9 10 11 11 10 8 7 6 6 5 3 2 3 2 3
3 6 7 6 6 6 4 2 2 3 2 2 2 1 1 3 4 5 5 5 6 7 7 8 8 10 10 10 9 8 8 10 12 10 8 6 5 5 4 4 2 0 1 1
Wind_Direction
163 177 200 198 194 193 177 172 189 208 200 166 199 224 232 200 199 210 212 212 214 219 218 205 199 192 185 186 186 187 187 186 180 178 182 185 192 187 187 188 189 190 191 191
161 213 203 185 189 218 225 195 190 206 181 174 207 236 244 216 210 209 208 212 215 219 217 206 198 190 189 188 189 188 189 188 187 189 186 182 176 185 191 191 197 196 196 197
186 194 176 187 194 205 227 208 190 178 122 131 162 260 252 245 232 233 227 220 215 209 207 202 196 195 192 192 191 190 190 188 188 180 169 161 168 182 195 202 204 205 201 200
202 197 168 189 205 194 223 215 184 160 148 205 177 225 256 232 236 233 230 224 220 214 207 200 194 193 195 196 191 189 187 187 185 179 181 180 191 200 202 192 194 200 203 204
201 188 178 196 206 191 207 190 177 177 170 172 196 195 265 225 230 236 230 224 221 213 203 199 195 193 193 188 184 185 183 186 184 184 187 188 195 195 179 176 184 193 191 189
189 194 191 197 197 194 162 101 83 87 131 212 204 182 251 221 210 223 227 220 215 206 195 190 182 169 167 164 171 176 178 185 185 185 186 188 190 184 177 180 179 175 160 156
185 204 206 176 164 185 172 147 142 173 211 232 185 195 241 237 221 219 223 214 200 185 174 168 164 163 164 165 171 174 174 180 181 183 186 186 185 181 182 175 169 158 152 145
170 199 198 186 175 177 194 178 171 178 200 236 187 220 245 252 260 257 229 192 171 175 174 172 169 164 168 171 171 171 172 174 174 176 178 173 169 167 165 159 149 146 139 130
173 194 172 187 170 158 173 201 173 129 121 164 229 264 295 267 261 240 189 172 182 181 175 169 163 160 165 170 175 175 167 162 162 160 152 150 149 143 136 126 118 115 114 111
144 155 176 169 129 205 169 155 131 143 155 207 243 236 229 222 228 223 210 202 194 180 171 163 159 156 155 155 150 150 152 149 142 137 134 131 126 123 122 117 114 111 107 104
126 134 151 160 183 177 158 167 164 157 169 168 213 253 219 208 210 211 212 201 186 180 173 165 157 149 138 130 129 128 129 125 122 120 117 114 111 111 111 111 111 111 104 100
131 121 143 195 219 190 181 178 164 177 201 183 175 259 252 223 245 222 208 190 181 173 166 159 152 144 137 134 130 126 124 120 118 117 113 111 110 109 108 108 107 107 104 99
139 124 117 109 227 207 207 203 187 164 139 167 184 252 279 252 260 221 190 175 166 162 159 156 155 154 151 145 138 130 126 122 118 116 114 112 112 112 112 111 108 104 104 100
127 134 165 187 195 169 188 198 181 158 181 201 211 228 254 233 226 208 180 168 163 167 167 167 167 164 159 152 145 138 131 127 123 118 117 116 116 116 114 111 108 105 105 104
137 164 185 190 165 160 182 189 183 194 198 199 215 213 227 222 211 199 176 166 168 178 181 180 176 171 164 157 150 142 136 132 129 124 120 120 116 113 111 109 107 104 100 100
163 168 158 164 173 171 182 194 193 208 211 217 217 230 232 235 161 169 177 180 188 193 191 185 179 176 174 169 162 153 146 139 132 128 126 124 122 118 116 116 115 109 104 102
156 143 153 181 131 117 221 204 197 208 214 201 221 229 184 197 200 198 192 194 200 198 192 188 187 184 179 174 165 160 151 138 131 129 130 132 132 128 126 124 118 115 112 110
141 133 130 133 122 203 232 202 192 210 225 213 218 206 192 203 210 207 194 195 203 198 193 191 186 180 171 160 151 142 139 140 138 137 139 140 137 132 129 124 120 118 114 110
137 134 124 138 176 248 269 219 190 196 239 223 222 219 207 199 143 255 212 203 206 200 194 188 179 168 159 158 151 143 143 144 145 149 150 149 145 139 137 133 129 125 120 108
102 120 124 141 173 225 237 204 166 151 252 229 206 210 186 149 203 241 208 201 205 191 176 166 156 150 157 157 150 150 154 156 160 157 150 144 142 141 139 136 129 119 118 113
124 130 152 161 201 247 240 177 136 183 237 210 190 195 181 193 217 223 180 193 189 174 160 153 155 161 162 156 154 157 159 166 154 139 134 131 132 131 129 123 117 121 115 108
163 162 175 163 205 238 189 147 179 212 183 178 189 193 194 212 227 190 174 176 162 156 153 154 157 157 154 157 158 159 163 148 136 135 133 131 130 127 126 125 122 118 120 118
188 182 176 190 214 197 174 187 202 161 170 184 187 197 187 197 205 187 177 166 159 155 153 152 150 146 149 158 161 157 151 143 139 135 135 134 128 121 128 132 132 128 126 122
236 138 151 203 234 204 199 202 175 169 173 171 170 170 169 182 181 173 162 157 153 150 151 146 146 150 154 152 145 144 144 144 141 141 141 141 138 133 128 128 132 136 143 144
182 163 170 206 196 131 260 235 208 144 102 103 92 135 171 164 172 173 171 168 162 152 147 153 159 158 155 146 136 137 144 145 142 142 143 143 141 142 139 133 137 150 169 175
186 173 175 201 186 169 198 231 181 160 169 169 151 133 144 172 179 169 172 165 158 155 152 153 152 150 149 146 143 145 150 151 147 148 152 153 151 146 143 141 133 96 173 234